Probability
0 0 0 0 0 0 0 0 0 0 0 0 0 0 0 0 0 0 0 0 0 0 0 0 0 0 0 0 0 0 0 0 0 0 0 0 0 0
0 0 0 0 0 0 0 0 0 0 0 0 0 0 0 0 0 0 0 0 0 0 0 0 0 0 0 0 0 0 0 0 0 0 0 0 0 0
0 0 0 0 0 0 0 0 0 0 0 0 0 0 0 0 0 0 0 0 0 0 0 0 0 0 0 0 0 0 0 0 0 0 0 0 0 0
0 0 0 0 0 0 0 0 0 0 0 0 0 0 0 0 0 0 0 0 0 0 0 0 0 0 0 0 0 0 0 0 0 0 0 0 0 0
0 0 0 0 0 0 0 0 0 0 0 0 0 0 0 0 0 0 0 0 0 0 0 0 0 0 0 0 0 0 0 0 0 0 0 0 0 0
0 0 0 0 0 0 0 0 0 0 0 0 0 0 0 0 0 0 0 0 0 0 0 0 0 0 0 0 0 0 0 0 0 0 0 0 0 0
0 0 0 0 0 0 0 0 0 0 0 0 0 0 0 0 0 0 0 0 0 0 0 0 0 0 0 0 0 0 0 0 0 0 0 0 0 0
0 0 0 0 0 0 0 0 0 0 0 0 0 0 0 0 0 0 0 0 0 0 0 0 0 0 0 0 0 0 0 0 0 0 0 0 0 0
0 0 0 0 0 0 0 0 0 0 0 0 0 0 0 0 0 0 0 0 0 0 0 0 0 0 0 0 0 0 0 0 0 0 0 0 0 0
0 0 0 0 0 0 0 0 0 0 0 0 0 0 0 0 0 0 0 0 0 0 0 0 0 0 0 0 0 0 0 0 0 0 0 0 0 0
0 0 0 0 0 0 0 0 0 0 0 0 0 0 0 0 0 0 0 0 0 0 0 0 0 0 0 0 0 0 0 0 0 0 0 0 0 0
0 0 0 0 0 0 0 0 0 0 0 0 0 0 0 0 0 0 0 0 0 0 0 0 0 0 0 0 0 0 0 0 0 0 0 0 0 0
0 0 0 0 0 0 0 0 0 0 0 0 0 0 0 0 0 0 0 0 0 0 0 0 0 0 0 0 0 0 0 0 0 0 0 0 0 0
0 0 0 0 0 0 0 0 0 0 0 0 0 0 0 0 0 0 0 0 0 0 0 0 0 0 0 0 0 0 0 0 0 0 0 0 0 0
0 0 0 0 0 0 0 0 0 0 0 0 0 0 0 0 0 0 0 0 0 0 0 0 0 0 0 0 0 0 0 0 0 0 0 0 0 0
0 0 0 0 0 0 0 0 0 0 0 0 0 0 0 0 0 0 0 0 0 0 0 0 0 0 0 0 0 0 0 0 0 0 0 0 0 0
0 0 0 0 0 0 0 0 0 0 0 0 0 0 0 0 0 0 0 0 0 0 0 0 0 0 0 0 0 0 0 0 0 0 0 0 0 0
0 0 0 0 0 0 0 0 0 0 0 0 0 0 0 0 0 0 0 0 0 0 0 0 0 0 0 0 0 0 0 0 0 0 0 0 0 0
0 0 0 0 0 0 0 0 0 0 0 0 0 0 0 0 0 0 0 0 0 0 0 0 0 0 0 0 0 0 0 0 0 0 0 0 0 0
0 0 0 0 0 0 0 0 0 0 0 0 0 0 0 0 0 0 0 0 0 0 0 0 0 0 0 0 0 0 0 0 0 0 0 0 0 0
0 0 0 0 0 0 0 0 0 0 0 0 0 0 0 0 0 0 0 0 0 0 0 0 0 0 0 0 0 0 0 0 0 0 0 0 0 0
0 0 0 0 0 0 0 0 0 0 0 0 0 0 0 0 0 0 0 0 0 0 0 0 0 0 0 0 0 0 0 0 0 0 0 0 0 0
0 0 0 0 0 0 0 0 0 0 0 0 0 0 0 0 0 0 0 0 0 0 0 0 0 0 0 0 0 0 0 0 0 0 0 0 0 0
Wind_Speed
1 1 1 0 0 1 2 3 3 3 2 1 0 0 0 1 2 2 2 4 4 4 4 4 4 4 4 4 4 4 3 3 3 4 3 3 3 2
1 2 1 1 1 1 1 1 1 2 2 1 1 1 1 1 3 2 2 3 4 4 4 4 4 4 4 4 4 3 3 3 3 3 3 3 2 1
2 2 2 1 1 1 1 1 1 2 2 1 1 1 1 1 1 1 1 1 2 5 5 5 4 4 3 3 3 3 3 4 4 4 4 3 3 3
3 3 2 2 2 1 2 2 1 1 3 3 1 1 1 1 2 1 1 1 1 3 5 5 4 4 4 3 4 3 3 3 3 4 4 4 4 4
2 2 2 2 2 1 2 2 2 2 2 3 2 1 1 1 2 1 1 1 1 2 4 4 4 4 4 4 4 4 5 5 5 4 4 4 4 4
3 3 2 2 1 1 2 2 2 3 3 4 3 2 1 1 2 1 1 1 0 1 1 2 3 4 5 5 6 6 6 6 6 6 5 5 4 4
4 4 4 5 4 3 2 2 3 2 3 3 3 2 1 1 1 1 1 1 1 0 1 0 1 1 3 5 7 8 8 7 7 7 6 6 6 6
4 4 5 6 6 7 6 4 3 3 4 3 2 3 2 1 1 1 2 1 1 1 1 1 1 2 3 3 6 8 8 8 8 8 7 7 7 7
4 4 5 6 6 5 6 7 6 5 4 4 4 3 3 3 3 2 1 1 2 2 1 1 1 2 3 4 8 9 10 10 10 10 9 9 9 9
5 5 5 5 6 5 5 5 5 4 3 3 3 3 3 3 3 3 2 1 1 1 2 1 1 2 3 3 6 9 10 10 11 10 10 10 10 10
5 5 5 5 8 7 6 6 5 4 5 4 2 2 3 3 4 3 2 2 1 1 1 1 1 1 2 2 4 6 8 9 10 11 11 11 11 9
4 5 6 6 7 7 5 5 4 3 3 4 3 2 1 1 2 3 3 2 1 1 2 1 1 0 2 3 2 2 3 7 9 10 11 11 10 5
3 3 3 6 6 6 4 3 1 1 2 2 2 2 2 1 1 1 3 3 3 3 3 2 1 1 2 2 3 3 2 3 3 5 8 11 11 8
2 2 3 5 5 5 3 2 2 2 2 2 2 2 1 1 2 2 2 3 3 4 4 3 2 3 2 2 3 3 2 3 3 3 4 6 8 11
1 3 4 5 5 3 3 4 2 2 1 1 1 1 2 2 1 1 2 1 2 3 4 3 3 2 3 3 3 3 3 3 3 3 4 4 4 4
3 4 5 5 4 3 3 3 1 0 0 1 1 2 1 1 1 1 1 1 2 4 4 3 4 4 3 3 3 4 3 3 3 3 3 4 4 4
2 3 3 3 3 3 3 3 2 2 1 1 1 1 2 2 2 1 0 0 0 2 4 4 2 2 4 3 3 4 4 4 4 3 2 3 5 5
2 2 2 2 2 2 2 2 2 2 1 1 1 1 1 1 2 2 1 1 2 2 3 3 3 3 3 3 5 5 4 4 4 3 3 3 5 6
1 1 2 2 2 2 2 2 2 2 1 1 1 1 1 1 1 2 2 2 2 3 3 2 1 0 1 4 6 5 4 4 3 3 3 4 5 6
1 1 2 2 2 2 2 2 2 1 1 1 1 2 2 1 2 2 2 2 3 3 3 3 2 3 4 4 4 5 5 5 3 4 4 3 5 7
3 2 3 3 3 3 2 2 2 1 2 1 2 2 2 1 2 3 3 4 3 3 3 5 5 5 3 1 3 5 5 6 7 5 4 3 4 4
4 4 4 4 3 3 2 2 2 2 2 2 2 2 2 2 3 4 3 3 3 4 4 5 5 3 1 3 5 6 6 7 7 9 11 10 5 5
5 4 4 3 3 2 2 2 3 2 2 2 2 3 3 3 3 3 3 4 4 4 4 4 4 2 3 4 5 6 8 7 5 5 6 10 13 16
Wind_Direction
23 41 44 9 54 115 136 152 155 167 201 210 215 244 125 126 142 129 140 144 138 136 131 128 134 146 145 136 134 136 137 147 159 168 174 176 189 198
28 40 29 28 66 94 119 117 127 151 162 185 195 168 169 158 153 137 165 167 167 160 150 141 136 137 140 145 149 158 162 168 176 180 184 179 181 202
28 37 24 44 79 87 99 112 112 128 137 131 78 104 122 150 122 125 147 162 181 175 168 162 160 159 163 166 175 183 188 194 203 210 212 213 216 230
27 33 27 50 53 66 87 96 103 115 132 139 116 113 132 148 123 125 150 167 162 176 179 181 183 186 191 199 211 215 214 211 217 227 233 236 238 244
29 38 40 59 50 54 76 89 89 90 104 128 126 118 95 113 101 76 81 56 175 180 187 196 200 205 209 219 229 234 233 228 228 231 235 239 246 250
28 42 47 63 81 85 89 100 103 94 102 113 115 102 77 76 93 89 46 26 346 183 186 187 201 219 226 228 229 230 233 231 229 228 229 230 234 239
31 39 44 48 60 71 96 114 121 116 115 114 116 102 89 86 97 111 108 50 355 251 118 242 201 227 237 236 234 233 233 234 232 229 228 231 234 237
39 32 37 42 43 53 63 76 107 134 138 128 132 134 140 134 123 120 111 87 326 278 149 253 191 232 242 232 236 236 236 237 238 237 236 235 235 237
51 45 43 39 38 47 49 52 56 74 115 137 141 158 162 177 154 133 142 161 222 234 141 252 239 243 250 242 236 238 240 239 240 240 239 239 238 239
49 55 57 38 36 50 62 56 50 52 72 112 147 169 175 176 169 165 172 169 296 271 148 198 254 255 264 258 247 242 242 241 240 241 241 240 240 241
41 45 52 47 36 52 67 64 54 37 51 73 114 152 174 178 163 121 105 89 24 298 215 168 247 282 286 276 272 256 245 243 243 244 244 243 242 242
31 29 37 42 38 47 64 69 58 26 32 38 42 30 52 168 179 165 158 145 161 269 253 169 226 209 307 288 276 276 258 250 247 247 247 246 243 234
31 15 8 25 34 40 57 75 81 29 26 39 29 11 10 9 334 192 178 166 173 228 229 170 198 195 207 284 296 269 242 244 246 250 248 245 240 217
27 355 349 5 21 24 37 33 41 43 48 40 32 6 348 311 287 266 226 215 214 224 229 179 192 199 193 256 281 288 276 247 230 246 253 254 249 235
359 340 345 358 7 9 357 360 27 43 40 35 344 290 269 268 294 324 319 290 279 261 244 213 201 205 186 212 247 262 282 281 247 238 249 243 241 232
355 344 348 358 6 344 336 345 354 323 181 245 274 286 300 321 319 308 314 336 343 314 298 261 226 201 216 232 227 255 252 257 269 255 247 255 252 232
345 4 8 2 360 352 348 339 340 357 356 317 313 325 332 333 314 308 291 324 309 296 307 313 297 231 217 213 240 256 259 260 255 251 240 265 266 250
39 15 343 336 327 317 324 329 332 324 306 306 321 307 308 306 307 314 306 270 276 281 284 293 321 347 345 294 226 237 258 258 265 254 219 234 268 266
43 331 308 297 291 284 277 277 284 283 281 278 272 277 281 289 295 302 306 298 284 279 278 280 277 220 301 298 293 235 218 255 267 272 245 223 242 261
284 275 282 279 273 271 268 268 282 302 295 271 273 277 277 276 282 284 280 274 280 286 295 294 266 229 220 244 267 281 242 224 241 260 266 261 258 269
284 275 268 262 261 261 260 256 251 254 251 249 268 272 272 268 275 275 276 280 276 276 278 276 268 264 243 259 291 288 281 251 230 233 249 262 277 288
262 263 266 261 253 255 253 246 244 256 262 257 265 272 273 264 270 279 280 278 272 265 268 274 286 297 256 253 268 277 286 294 281 260 242 223 222 238
247 250 253 257 254 244 231 229 231 247 248 247 258 264 269 270 270 272 276 275 275 277 281 286 294 290 268 259 267 275 281 286 289 295 286 265 246 245